Retour au catalogue

STARLINK-30221

ActifCommunicationsVLEO
NORAD 57418·PAYLOAD·🇺🇸 United States

Lancé Jul 20, 2023 depuis Vandenberg Space Force Base

Loading…

Prochains Passages (prochaines 24 heures)

TLE

FraisSource: CelesTrak SupGP

Époque: Sep 14, 2026, 20:33 UTC

1 57418C 23102Q   26257.85673611  .00459220  00000+0  59230-2 0  2571
2 57418  42.9994 262.2134 0001778 277.4024 191.1064 15.57865947    13

Suivez STARLINK-30221 en temps réel avec AllMySat

Download on the App Store